sat.trackr.live / text

‹ back to catalog

STARLINK-31440

NORAD 58999 · 2024-036B

PAYLOAD ACTIVE UNKNOWN

§ Identity

Operator
Country
US
Launch date
2024-02-23
Launch site
AFWTR
Launch vehicle
Mass (kg)
RCS (m²)

Purposes: comms

External: N2YO · Heavens-Above · Gunter

§ Orbital elements

Epoch: 2026-09-20T23:15:39.868416Z

Period
93.85 min
Inclination
53.1573°
Eccentricity
0.0001018
Mean motion
15.34406589 rev/d
Perigee alt
462.0 km
Apogee alt
463.4 km
Semi-major
6,840.8 km
B*
3.1344e-4
RAAN
249.5012°
Arg perigee
90.5282°
Mean anomaly
269.5838°
Rev number
14,443

§ Raw data

STARLINK-314401 58999U 24036B   26263.96921144  .00010231  00000+0  31344-3 0  99942 58999  53.1573 249.5012 0001018  90.5282 269.5838 15.34406589144437

JSON: /api/v1/satellites/58999 · /tle

For live sub-satellite position, see the globe view (requires WebGL).

§ Visibility from observer

Set your observer location to see the next 7 days of passes ≥ 10°. The values pass through the URL so the page stays shareable.

No JS? Fill the form by hand. The geolocation button needs JavaScript.